Address 0x0000000000000000000000000000000000000000 16

 

Overview

Balance:
519.638454950338105165 BNB

BNB Value:
$196,371.37 (@ $377.90/BNB)

Token:
 
Txn Hash Method
Block
From
To
Value [Txn Fee]
0x7cd5a4c2e3d1d325a2eca29afde2339cef04a7410f1fa2c849ca0b13956d0556-111516792021-09-23 1:25:191 hr 19 mins ago0x73218f2adb288d6d698f8a1acb26ece88c437829 IN  0x00000000000000000000000000000000000000000 BNB0.000138752424
0x0548224d275fb161e00d57482cfe3afff7f0a165d7616b8be3b6a58f6a1a909f-111503062021-09-23 0:16:392 hrs 28 mins ago0x73218f2adb288d6d698f8a1acb26ece88c437829 IN  0x00000000000000000000000000000000000000000 BNB0.000138752424
0x981c08ecf8438e8eb5d91a2d535179834a0245b5973e794259d175c9609e9f820x7b226534111501762021-09-23 0:10:092 hrs 34 mins ago0x91332b1ce92fe037eba10ba5b46e9c39d4acb4cf IN  0x00000000000000000000000000000000000000000 BNB0.0001654
0xd7cceba23afa99ba41e5a9a4d9906cba5af80e493d8a32ed359744a6803fc0d2-111480442021-09-22 22:22:044 hrs 22 mins ago0x73218f2adb288d6d698f8a1acb26ece88c437829 IN  0x00000000000000000000000000000000000000000 BNB0.000347261663
0x8ef6519a8cba7d916e922921c10f2ed53f17b6033b65fe8eafb4bb7ff4a63ebbApprove111472772021-09-22 21:43:335 hrs 1 min ago0x1a0201ec6755890bad97e1c85f943fe3cfb3041f IN  0x00000000000000000000000000000000000000000 BNB0.00010822
0xf24492be8986bdca3cfd18922dbe4cb408a06e6dcfd7689de4c4735d084872f60x7b226634111466132021-09-22 21:10:095 hrs 34 mins ago0x91332b1ce92fe037eba10ba5b46e9c39d4acb4cf IN  0x00000000000000000000000000000000000000000 BNB0.00019244
0xdcf718c683f73e4bbd2d92eb9617705bcd07423b79ef5eee12a8e0603b5b6982-111464202021-09-22 21:00:005 hrs 44 mins ago0x73218f2adb288d6d698f8a1acb26ece88c437829 IN  0x00000000000000000000000000000000000000000 BNB0.000242612718
0x55e0fecc6aa8db924c592c33161760f6d07554335ce8b70bdcda5efb7b701c770x7b226464111454332021-09-22 20:10:076 hrs 34 mins ago0x91332b1ce92fe037eba10ba5b46e9c39d4acb4cf IN  0x00000000000000000000000000000000000000000 BNB0.00017172
0x2fc1dcc1fc2be80d03c06e8a2caa2196104aa194b16b6eb3e64c0ca4621c7a29Approve111452672021-09-22 20:01:496 hrs 43 mins ago0x6a6fc77d039575cd6acf6eb57eb1c06401ffe77d IN  0x00000000000000000000000000000000000000000 BNB0.00010972
0xcac602986020177a2c8d56ee94ff27c2715c704015d7f0bcc66f17d65cfd22b0-111450242021-09-22 19:49:346 hrs 55 mins ago0x73218f2adb288d6d698f8a1acb26ece88c437829 IN  0x00000000000000000000000000000000000000000 BNB0.000138752424
0x29fc78fbddd93fd628de947e0e6857a23a99c8fbc76cc5135677d4e621316929-111449132021-09-22 19:44:017 hrs ago0x63f3f8b3d358df1f75544c11e4d0b9c275c30556 IN  0x00000000000000000000000000000000000000000 BNB0.000138752424
0x9e8a28309c89f85d39f9a5ba3d35464bc2f34ae8033cf0c7a22c06eeec059097-111447592021-09-22 19:36:197 hrs 8 mins ago0x73218f2adb288d6d698f8a1acb26ece88c437829 IN  0x00000000000000000000000000000000000000000 BNB0.000138752424
0x1abf75a06cb1dd14f16755e51c258753a92b1b08f5bf1efb76743cfda1f82103-111445882021-09-22 19:27:467 hrs 17 mins ago0x73218f2adb288d6d698f8a1acb26ece88c437829 IN  0x00000000000000000000000000000000000000000 BNB0.000174740434
0xbd0216304f8d35ce1aa066a7e199de408372016881389e335917955d865bdc380x7b223231111430432021-09-22 18:10:098 hrs 34 mins ago0x91332b1ce92fe037eba10ba5b46e9c39d4acb4cf IN  0x00000000000000000000000000000000000000000 BNB0.00018396
0x633c37ea80c01ca82269432abea89d1b70e7eb6b196f3a08473eeb7985384174Approve111427532021-09-22 17:55:268 hrs 49 mins ago0x55526eafa91f3fe429b6c9346f384c30fd699bcc IN  0x00000000000000000000000000000000000000000 BNB0.00010822
0xc607a259b32f1b7682d25fdd48c4acacdab8bebe65b97284a6d5ee6d06b8b718-111421082021-09-22 17:22:379 hrs 22 mins ago0x73218f2adb288d6d698f8a1acb26ece88c437829 IN  0x00000000000000000000000000000000000000000 BNB0.000138752424
0x00996d59261efd443958f6fc583a806af76b1928c20d1b92179eba616bcbe767-111419112021-09-22 17:12:469 hrs 32 mins ago0x63f3f8b3d358df1f75544c11e4d0b9c275c30556 IN  0x00000000000000000000000000000000000000000 BNB0.000143840012
0xbc9d754c124f94736232796be63059c120ebe39a7f0f5d38d061b762eea000050x90ba7a94111410462021-09-22 16:29:2410 hrs 15 mins ago0xa7f4a9e19a39c1126417920ccb6e0206cbad72d0 IN  0x00000000000000000000000000000000000000000 BNB0.00010964
0xa8630d5c5d3e21a5d5b2829b7187a618d40300fb9be0ee2620a811145999bad70xfe7c57bc111410422021-09-22 16:29:1210 hrs 15 mins ago0xa7f4a9e19a39c1126417920ccb6e0206cbad72d0 IN  0x00000000000000000000000000000000000000000.5 BNB0.00010964
0x9ad65c3a715bec78d34a672674020e5b3ae7894f067f4c9edce00a276a7a7e2a0x7b223662111394882021-09-22 15:10:0811 hrs 34 mins ago0x91332b1ce92fe037eba10ba5b46e9c39d4acb4cf IN  0x00000000000000000000000000000000000000000 BNB0.00016444
0x617a3ac880e9d277df49a7fe3388e7962fe5de2457f68063ff6802ce517465670x7b226639111370922021-09-22 13:10:0813 hrs 34 mins ago0x91332b1ce92fe037eba10ba5b46e9c39d4acb4cf IN  0x00000000000000000000000000000000000000000 BNB0.00027484
0x54d619f1d5e8384f5d6fb503205a09d502ea640b61d4add3228d60f1f6384f34Speed Stake111361222021-09-22 12:21:3814 hrs 23 mins ago0x111110a5303e90c0f2cf6f040222076f645ef099 IN  0x00000000000000000000000000000000000000000.1 BNB0.0001094
0x72c9fbccfa67049f6211e20d6b41936b0a4481e82e8c24f49f2efdfbc64c8aa3-111334542021-09-22 10:07:5916 hrs 36 mins ago0x73218f2adb288d6d698f8a1acb26ece88c437829 IN  0x00000000000000000000000000000000000000000 BNB0.000143840012
0xeab25e1a27ce69e8a17c37eab4f2ccdf4fe388c5b18c6823b68fd39632fde31c0x7b226434111323002021-09-22 9:10:0817 hrs 34 mins ago0x91332b1ce92fe037eba10ba5b46e9c39d4acb4cf IN  0x00000000000000000000000000000000000000000 BNB0.00050956
0x47a95299c6e335bc245497ad4b40137a39b3859da64c8d08f016c7ee8794aa900x7b223763111311102021-09-22 8:10:0918 hrs 34 mins ago0x91332b1ce92fe037eba10ba5b46e9c39d4acb4cf IN  0x00000000000000000000000000000000000000000 BNB0.00037292
[ Download CSV Export 
Latest 25 internal transaction
Parent Txn Hash Block From To Value
0x8f314b84f76f0cac4532b0b543491705230dbd09ab94f698d0993193a65420ca111447022021-09-22 19:33:287 hrs 11 mins ago 0x8729b3cc629d98472bad1664d0c52b189dbfc621 0x00000000000000000000000000000000000000000.013463100961910205 BNB
0x521a2c7e93bfc4071f3762df9ee2fa1190746c96860db4f47aeb47232f9457d1111276152021-09-22 5:13:5221 hrs 30 mins ago 0x1607b421b30f153027ce80d9498cb61e711e4849 0x00000000000000000000000000000000000000000.000000001862898743 BNB
0x521a2c7e93bfc4071f3762df9ee2fa1190746c96860db4f47aeb47232f9457d1111276152021-09-22 5:13:5221 hrs 30 mins ago 0x1607b421b30f153027ce80d9498cb61e711e4849 0x00000000000000000000000000000000000000000.000000000411700622 BNB
0x8cc6f2447cf2b3f555bb9e82d3732081d6891ff12cdde2663891ebfef3d672d2111273912021-09-22 5:02:4021 hrs 42 mins ago 0x1607b421b30f153027ce80d9498cb61e711e4849 0x00000000000000000000000000000000000000000.000000001862849963 BNB
0x8cc6f2447cf2b3f555bb9e82d3732081d6891ff12cdde2663891ebfef3d672d2111273912021-09-22 5:02:4021 hrs 42 mins ago 0x1607b421b30f153027ce80d9498cb61e711e4849 0x00000000000000000000000000000000000000000.000000000411689841 BNB
0x9d94ebec574f1afbe54b9bab6b7364552759d6d0cb92f975a629501382bed2e6111271712021-09-22 4:51:4021 hrs 53 mins ago 0x1607b421b30f153027ce80d9498cb61e711e4849 0x00000000000000000000000000000000000000000.000000000196578637 BNB
0xfbe4c79e143a83c033421bd39d908aeb77745227af37dc02fd18221a62da3008111195882021-09-21 22:28:231 day 4 hrs ago 0x9bf05b56b8f7ab3666cfade62253eabb6c1463ee 0x00000000000000000000000000000000000000000.00002 BNB
0xf8e0e72a39e1884ebf7ce3a23f4f5648228ac44167a4a5157a7c4d7efe01167f111194092021-09-21 22:19:071 day 4 hrs ago 0x9bf05b56b8f7ab3666cfade62253eabb6c1463ee 0x00000000000000000000000000000000000000000.0000004 BNB
0x58538a8bb18669c26dd9752ff2d4a166b6cdaa9c6ea090878bae410668d0e397111182692021-09-21 21:19:541 day 5 hrs ago 0x9bf05b56b8f7ab3666cfade62253eabb6c1463ee 0x00000000000000000000000000000000000000000.0000022 BNB
0xf839f81b3661edf5e1b18a6930c7645c5ba9f157c10c64bf8302b47b8d59ecfa111162652021-09-21 19:39:361 day 7 hrs ago 0x8729b3cc629d98472bad1664d0c52b189dbfc621 0x00000000000000000000000000000000000000000.013501605355739718 BNB
0x5cc48bdc863baf8e1b7601479319d2da14d3ab422f022255df8cd909d550e9da111094202021-09-21 13:54:301 day 12 hrs ago 0x8729b3cc629d98472bad1664d0c52b189dbfc621 0x00000000000000000000000000000000000000000.013832376596300588 BNB
0xd57528f70a57c330bdc69f3a87639202189ebaf93a1383266ce0150f488562a1111093772021-09-21 13:52:211 day 12 hrs ago 0x8729b3cc629d98472bad1664d0c52b189dbfc621 0x00000000000000000000000000000000000000000.014045729943241202 BNB
0x2dfc730aac247184971e66bc0e532c81878bca7a53545a95700b403124e9f661111089592021-09-21 13:31:251 day 13 hrs ago 0x8729b3cc629d98472bad1664d0c52b189dbfc621 0x00000000000000000000000000000000000000000.005337095923806582 BNB
0xc39770832a4332a10ba1b455813a56018438c4de4857aad2ff584e77b42fe23b111088632021-09-21 13:26:371 day 13 hrs ago 0x8729b3cc629d98472bad1664d0c52b189dbfc621 0x00000000000000000000000000000000000000000.00356023182815123 BNB
0x1baf2170701be0f38255427a4ae3535f0383692859fe1dbbbcb60649912c2216111088552021-09-21 13:26:131 day 13 hrs ago 0x8729b3cc629d98472bad1664d0c52b189dbfc621 0x00000000000000000000000000000000000000000.003562401689817219 BNB
0x579f5884226fe134c83851f224db9d3727a18e7d6fd8080efe6dcbb1d76cd888111088492021-09-21 13:25:551 day 13 hrs ago 0x8729b3cc629d98472bad1664d0c52b189dbfc621 0x00000000000000000000000000000000000000000.003564573536621428 BNB
0x8441e86db3a70de17910dd0e3e1115e7a249887d95bf8c34003863c9486e242e111088432021-09-21 13:25:371 day 13 hrs ago 0x8729b3cc629d98472bad1664d0c52b189dbfc621 0x00000000000000000000000000000000000000000.003566747370986624 BNB
0x18c6645fa641a6bcaeda449d51e008256bb101a438a62341e85f6ca8b6e91ebc111088382021-09-21 13:25:221 day 13 hrs ago 0x8729b3cc629d98472bad1664d0c52b189dbfc621 0x00000000000000000000000000000000000000000.003568923195339269 BNB
0x02065b072b54b08ec71a5eacf786aac7c7072a3592c63eed8a8e527a1d53837b111088312021-09-21 13:25:011 day 13 hrs ago 0x8729b3cc629d98472bad1664d0c52b189dbfc621 0x00000000000000000000000000000000000000000.00357110101210953 BNB
0xa725ba2cf3e4ef942765dd2a663adc904f2ab3b8e7594a99b9666a378b906410111088242021-09-21 13:24:401 day 13 hrs ago 0x8729b3cc629d98472bad1664d0c52b189dbfc621 0x00000000000000000000000000000000000000000.003573280823731286 BNB
0x15db8cb01b097a2fd74d1237709eccff00966d512cc3ab8751139d1f84ff1517111088182021-09-21 13:24:221 day 13 hrs ago 0x8729b3cc629d98472bad1664d0c52b189dbfc621 0x00000000000000000000000000000000000000000.003575462632642132 BNB
0x1fcbc23d864da8b42cc7a0f1093be22d58ea3bf1b629befadda7dfeb467315a6111088132021-09-21 13:24:071 day 13 hrs ago 0x8729b3cc629d98472bad1664d0c52b189dbfc621 0x00000000000000000000000000000000000000000.003577646441283391 BNB
0xf4457967bd63d1840020bac8b30f4523bc4072882392c57317d4cca92081a3af110759182021-09-20 9:54:132 days 16 hrs ago 0x2f2bae62640522b52c2c0c32da632ceaafdb1ab4 0x00000000000000000000000000000000000000000.01 BNB
0x1028d2e7a5b04b7961d6c4c6876aee377456ad8cad0d44ca4169a0c4835feeab110598902021-09-19 20:32:423 days 6 hrs ago 0x9bf05b56b8f7ab3666cfade62253eabb6c1463ee 0x00000000000000000000000000000000000000000.0000002 BNB
0xcd977fa6b14f7438aafd3aee36d38b469f017004cefc889994b47007c392220f110575692021-09-19 18:36:383 days 8 hrs ago 0x9bf05b56b8f7ab3666cfade62253eabb6c1463ee 0x00000000000000000000000000000000000000000.00000000000006 BNB
[ Download CSV Export 
Loading

Contract Name:
0 BNB

Compiler Version
0

Optimization Enabled:
0 BNB

Other Settings:
-NA-
Block Transaction Gas Used Reward
Age Block Fee Address BC Fee Address Voting Power Jailed Incoming
Block Uncle Number Difficulty Gas Used Reward
Loading
Loading
Make sure to use the "Vote Down" button for any spammy posts, and the "Vote Up" for interesting conversations.